[[{"header":{"parameterUnit":"m.s-1","parameterCategory":1,"la1":30.2991,"la2":30.254,"lo1":-89.0895,"lo2":-89.0444,"dy":0.0017,"dx":0.0017,"nx":28,"ny":28,"refTime":"2025-07-09T09:00:00:Z","depth":0,"parameterNumber":2,"parameterNumberName":"U-component_of_WINDS"},"data":[0,0,0,0,0,0,0,0,0,0,0,0,0,0,0,0,0,0,0,0,0,0,0,0,0,0,0,0,0,0,0,0,0,0,0,0,0,0,0,0,0,0,0,0,0,0,0,0,0,0,0,0,0,0,0,0,0,0,2.7137,2.7138,0,2.7208,2.7209,2.721,2.7136,2.7134,2.7131,2.7128,2.7201,2.7206,2.721,0,0,0,0,0,0,0,0,0,0,0,0,0,2.6935,2.6939,2.7137,2.7138,2.7139,2.7208,2.7209,2.721,2.7137,2.7133,2.713,2.7127,2.72,2.7205,2.7211,0,0,0,0,0,0,0,0,0,0,0,0,0,2.7016,2.6941,2.7137,2.7111,2.7109,2.7208,2.7209,2.7211,2.7138,2.7133,2.7129,2.7125,2.7198,2.7205,2.7211,2.734,0,0,2.7233,2.7236,0,0,0,0,0,0,0,0,2.7012,2.7024,2.7114,2.7113,2.7111,2.7159,2.7165,2.7254,2.7139,2.7127,2.7128,2.7123,2.7191,2.7198,2.7221,2.7343,2.7347,2.7233,2.7237,2.724,2.7242,0,0,0,0,0,0,0,2.7006,2.702,2.7165,2.7115,2.7114,2.7094,2.7101,2.7181,2.7182,2.7128,2.7122,2.7132,2.7189,2.7214,2.7222,2.7348,2.7233,2.7239,2.7243,2.7246,2.7575,2.7579,0,0,0,0,0,0,2.7004,2.7016,2.7163,2.7167,2.705,2.7102,2.7109,2.7148,2.7181,2.7182,2.7135,2.7128,2.7205,2.7214,2.7224,2.7373,2.724,2.7247,2.7251,2.757,2.7576,2.758,0,0,0,0,0,0,2.7,2.7018,2.716,2.709,2.7107,2.711,2.7154,2.7152,2.7177,2.7187,2.7186,2.7161,2.7202,2.7214,2.7311,2.7375,2.725,2.7256,2.7565,2.7572,2.7578,2.7675,0,0,0,0,0,0,2.6994,2.7017,2.7066,2.7092,2.7111,2.7247,2.7158,2.7156,2.7189,2.718,2.7211,2.7212,2.7199,2.7301,2.7318,2.7382,2.7262,2.7559,2.7568,2.7576,2.7666,2.7684,2.77,0,0,0,0,0,2.6987,2.7092,2.7069,2.7087,2.7173,2.725,2.7261,2.7244,2.7194,2.7243,2.7249,2.7211,2.7366,2.7311,2.733,2.7397,2.7555,2.7565,2.7575,2.7658,2.768,2.7699,0,0,0,0,0,0,2.7075,2.7095,2.707,2.7186,2.7217,2.7238,2.7299,2.7269,2.7315,2.7305,2.7282,2.729,2.7391,2.7404,2.7343,2.7521,2.7452,2.7466,2.7509,2.753,2.7546,2.754,2.7267,0,0,0,0,0,2.7107,2.7169,2.7183,2.7284,2.73,2.7298,2.7331,2.7315,2.7346,2.7358,2.7372,2.7403,2.7458,2.7495,2.7547,2.7668,2.7671,2.7723,2.774,2.7754,2.7766,2.7827,2.7849,2.7614,2.7614,2.7614,0,0,2.7176,2.7194,2.7234,2.7302,2.7324,2.7386,2.7309,2.738,2.7425,2.7369,2.7459,2.747,2.7504,2.7612,2.766,2.7626,2.7832,2.7767,2.7778,2.7783,2.784,2.7862,2.7881,2.7621,2.762,2.7619,0,0,2.7331,2.7353,2.7437,2.746,2.7494,2.749,2.7511,2.7536,2.754,2.7631,2.7589,2.7643,2.774,2.7763,2.7789,2.795,2.7915,2.7967,2.8055,2.8115,2.8133,2.8149,2.8203,2.8223,2.798,2.798,2.798,0,2.7411,2.7504,2.7484,2.7556,2.7586,2.7537,2.7621,2.7644,2.7694,2.7715,2.7676,2.7793,2.7813,2.7923,2.7962,2.7985,2.8006,2.7963,2.8132,2.8148,2.8163,2.8214,2.8235,2.7986,2.7985,2.7985,2.7984,0,2.7599,2.7664,2.7728,2.7775,2.7812,2.789,2.788,2.792,2.79,2.7901,2.7992,2.8013,2.8066,2.8092,2.8075,2.8199,2.8176,2.8136,2.8065,2.8191,2.8239,2.8259,2.7994,2.7992,2.7991,2.7989,0,0,2.7812,2.7845,2.7868,2.7887,2.792,2.7969,2.8043,2.8095,2.8127,2.8163,2.8222,2.8304,2.8265,2.8293,2.8278,2.8331,2.8452,2.8282,2.8283,2.831,2.8587,2.8615,2.8638,2.843,2.8434,2.8437,2.8583,0,2.7965,2.8094,2.8077,2.82,2.8257,2.8211,2.8275,2.8301,2.8303,2.8351,2.8354,2.841,2.8357,2.8373,2.8423,2.8427,2.8507,2.8416,2.8483,2.8486,2.8473,2.8664,2.8695,2.8832,2.8602,2.8605,2.8607,0,2.8162,2.8201,2.833,2.8349,2.8373,2.8431,2.8474,2.8522,2.855,2.8547,2.8578,2.8552,2.8624,2.8554,2.8652,2.8591,2.8617,2.8623,2.8628,2.8631,2.8552,2.8669,2.8876,2.8895,2.8637,2.8634,2.8632,0,2.8299,2.8386,2.8472,2.849,2.8517,2.8558,2.8571,2.8594,2.8625,2.8663,2.8682,2.8729,2.8754,2.879,2.8776,2.8727,2.8876,2.8805,2.8874,2.8874,2.8905,2.8903,2.9116,2.8928,2.8927,2.8927,2.8927,0,2.847,2.855,2.8534,2.8587,2.8673,2.8652,2.8739,2.8746,2.8766,2.8819,2.8782,2.8832,2.8813,2.8861,2.8852,2.8932,2.8945,2.8943,2.8939,2.8945,2.8945,2.896,2.8949,2.8932,2.8931,2.893,2.8929,0,2.8638,2.8631,2.8722,2.8738,2.8744,2.8807,2.882,2.8869,2.8868,2.8934,2.8949,2.8946,2.9001,2.8991,2.9053,2.9046,2.9145,2.9131,2.9135,2.9131,2.9198,2.9191,2.9426,2.9454,2.9251,2.9253,2.9255,0,2.8747,2.8806,2.8828,2.886,2.8875,2.8928,2.8958,2.894,2.8972,2.9006,2.905,2.9101,2.9141,2.923,2.9233,2.9279,2.9263,2.9343,2.927,2.9273,2.926,2.9256,2.926,2.9356,2.9359,2.9361,2.9362,0,2.8939,2.8931,2.8976,2.9019,2.9056,2.9089,2.9119,2.9147,2.913,2.9169,2.9223,2.9254,2.9314,2.9365,2.9407,2.9419,2.9387,2.9385,2.9402,2.9408,2.9406,2.9404,2.9171,2.9379,2.9378,2.9376,2.9375,2.9375,2.9078,2.9127,2.9149,2.9199,2.9219,2.9246,2.9292,2.9295,2.934,2.9387,2.9373,2.9434,2.9457,2.951,2.9527,2.9573,2.9544,2.957,2.9576,2.9582,2.9589,2.9401,2.9581,2.9581,2.958,2.958,2.958,0,2.9265,2.9276,2.9322,2.9363,2.9402,2.9369,2.9399,2.9433,2.9487,2.9511,2.955,2.9611,2.9659,2.9665,2.9709,2.9745,2.9731,2.9757,2.9753,2.9755,2.9615,2.9593,2.9767,2.9767,2.9767,2.9767,2.9767,2.9767,2.9366,2.9446,2.9441,2.9529,2.954,2.9599,2.9618,2.9642,2.9661,2.973,2.9769,2.9772,2.9788,2.9833,2.9874,2.9875,2.9892,2.9922,2.9917,2.9785,2.9766,2.9748,2.9728,2.9927,2.9927,3.0053,3.0055,3.0056]},{"header":{"parameterUnit":"m.s-1","parameterCategory":1,"la1":30.2991,"la2":30.254,"lo1":-89.0895,"lo2":-89.0444,"dy":0.0017,"dx":0.0017,"nx":28,"ny":28,"refTime":"2025-07-09T09:00:00:Z","depth":0,"parameterNumber":3,"parameterNumberName":"V-component_of_WINDS"},"data":[0,0,0,0,0,0,0,0,0,0,0,0,0,0,0,0,0,0,0,0,0,0,0,0,0,0,0,0,0,0,0,0,0,0,0,0,0,0,0,0,0,0,0,0,0,0,0,0,0,0,0,0,0,0,0,0,0,0,1.7591,1.7592,0,1.7654,1.7655,1.7656,1.7626,1.7625,1.7623,1.7622,1.7686,1.7689,1.7692,0,0,0,0,0,0,0,0,0,0,0,0,0,1.7445,1.7447,1.7591,1.7592,1.7593,1.7654,1.7655,1.7656,1.7627,1.7625,1.7623,1.7621,1.7685,1.7688,1.7692,0,0,0,0,0,0,0,0,0,0,0,0,0,1.7508,1.7448,1.7591,1.7586,1.7586,1.7654,1.7655,1.7656,1.7627,1.7625,1.7622,1.762,1.7683,1.7688,1.7693,1.777,0,0,1.7707,1.7709,0,0,0,0,0,0,0,0,1.7504,1.7513,1.7586,1.7586,1.7587,1.763,1.7627,1.7694,1.7628,1.7611,1.7622,1.7619,1.7669,1.7675,1.7692,1.7773,1.7775,1.7708,1.7711,1.7713,1.7714,0,0,0,0,0,0,0,1.75,1.7511,1.7616,1.7587,1.7587,1.758,1.7586,1.7639,1.7653,1.7613,1.7611,1.7619,1.7669,1.7687,1.7693,1.7776,1.7708,1.7712,1.7715,1.7717,1.7922,1.7924,0,0,0,0,0,0,1.7496,1.7507,1.7614,1.7618,1.7539,1.7584,1.7591,1.7618,1.7652,1.7655,1.7621,1.7617,1.768,1.7688,1.7695,1.7787,1.7713,1.7717,1.772,1.7919,1.7922,1.7925,0,0,0,0,0,0,1.7493,1.7506,1.7612,1.7562,1.7575,1.7589,1.762,1.7621,1.7639,1.7658,1.766,1.7637,1.7679,1.7689,1.7751,1.7788,1.7719,1.7724,1.7916,1.792,1.7924,1.7971,0,0,0,0,0,0,1.7489,1.7505,1.7535,1.7563,1.7578,1.7667,1.7622,1.7624,1.7648,1.7644,1.7674,1.7677,1.7678,1.7744,1.7756,1.7794,1.7727,1.7913,1.7918,1.7922,1.7966,1.7976,1.7984,0,0,0,0,0,1.7484,1.7546,1.7536,1.7549,1.7615,1.7669,1.7678,1.7677,1.7651,1.7681,1.7692,1.7676,1.7782,1.7751,1.7764,1.7804,1.791,1.7916,1.7922,1.7962,1.7974,1.7984,0,0,0,0,0,0,1.7522,1.7549,1.7539,1.7612,1.7639,1.7664,1.7702,1.769,1.7725,1.7719,1.7717,1.7724,1.7789,1.7802,1.7767,1.7879,1.7842,1.7851,1.7868,1.788,1.7888,1.7884,1.7731,0,0,0,0,0,1.7538,1.758,1.7602,1.7664,1.7678,1.7688,1.7711,1.7708,1.7736,1.7747,1.7763,1.779,1.7829,1.7855,1.7892,1.7967,1.7973,1.8001,1.801,1.8018,1.8025,1.8065,1.8077,1.7944,1.7944,1.7944,0,0,1.7574,1.7594,1.762,1.7672,1.7692,1.7735,1.7697,1.7744,1.7776,1.7754,1.7814,1.7826,1.7856,1.7925,1.7956,1.7938,1.8063,1.8025,1.8031,1.8034,1.8072,1.8085,1.8096,1.7948,1.7947,1.7947,0,0,1.766,1.7679,1.7733,1.7754,1.7784,1.779,1.7803,1.783,1.7838,1.7898,1.7882,1.7919,1.7987,1.8008,1.8028,1.8121,1.8107,1.8133,1.8181,1.8219,1.823,1.8239,1.8272,1.8283,1.814,1.8141,1.8141,0,1.77,1.7764,1.7762,1.781,1.7833,1.7814,1.7868,1.7888,1.793,1.7946,1.7925,1.8009,1.8028,1.8101,1.8123,1.814,1.8154,1.813,1.8229,1.8238,1.8247,1.8277,1.829,1.8143,1.8143,1.8143,1.8143,0,1.7811,1.7855,1.7895,1.7935,1.7962,1.8013,1.8018,1.8046,1.8041,1.8048,1.8109,1.8131,1.8172,1.8189,1.8184,1.8261,1.8249,1.8229,1.8192,1.8262,1.8291,1.8303,1.8148,1.8147,1.8146,1.8145,0,0,1.7923,1.7961,1.7975,1.7993,1.8025,1.8059,1.8108,1.8148,1.8172,1.8201,1.8241,1.8299,1.828,1.8302,1.83,1.8334,1.8405,1.8309,1.831,1.8326,1.849,1.8505,1.8519,1.8396,1.8398,1.84,1.8487,0,1.8011,1.8098,1.8097,1.8177,1.8218,1.82,1.8243,1.8267,1.8275,1.8311,1.832,1.836,1.8332,1.8346,1.8379,1.8389,1.8438,1.8383,1.8433,1.8435,1.8426,1.8534,1.855,1.8632,1.8499,1.8501,1.8502,0,1.8126,1.8158,1.8242,1.8267,1.8284,1.8323,1.8358,1.8393,1.8419,1.8422,1.8447,1.8439,1.8488,1.845,1.8517,1.848,1.85,1.8508,1.8511,1.8516,1.8473,1.8541,1.8658,1.8671,1.852,1.8519,1.8517,0,1.8199,1.8263,1.8321,1.8337,1.8368,1.8395,1.8409,1.8433,1.8457,1.8488,1.8503,1.8539,1.856,1.8588,1.8589,1.8561,1.8657,1.8619,1.8661,1.8661,1.8682,1.8681,1.8804,1.8696,1.8695,1.8695,1.8695,0,1.8297,1.8349,1.8354,1.839,1.8448,1.8446,1.8503,1.8514,1.8535,1.8573,1.8559,1.8595,1.8595,1.863,1.8632,1.8687,1.8696,1.87,1.87,1.8701,1.8701,1.8715,1.8709,1.8698,1.8698,1.8697,1.8697,0,1.8388,1.8394,1.8456,1.848,1.8487,1.8528,1.8548,1.8582,1.8589,1.8636,1.8647,1.8658,1.8699,1.8703,1.8751,1.8752,1.8819,1.8812,1.881,1.8809,1.8851,1.8847,1.8987,1.9005,1.8885,1.8886,1.8887,0,1.845,1.849,1.8518,1.8542,1.8557,1.8596,1.862,1.8619,1.8645,1.8677,1.8707,1.8747,1.8778,1.8845,1.8857,1.8893,1.8887,1.8934,1.8893,1.8893,1.8888,1.8885,1.8889,1.8942,1.8943,1.8944,1.8945,0,1.856,1.8561,1.8596,1.8632,1.8661,1.8689,1.8715,1.8736,1.8738,1.8767,1.8809,1.8834,1.8882,1.8922,1.8957,1.8971,1.8959,1.8958,1.897,1.8972,1.8968,1.897,1.8832,1.8955,1.8954,1.8953,1.8953,1.8952,1.8639,1.8672,1.8697,1.8736,1.8756,1.8781,1.8813,1.8824,1.8859,1.8899,1.8896,1.8942,1.8966,1.9012,1.9029,1.9064,1.9049,1.9066,1.907,1.9074,1.9078,1.8963,1.9071,1.9071,1.907,1.907,1.907,0,1.8747,1.8762,1.8798,1.8835,1.8866,1.8851,1.8879,1.8906,1.8946,1.897,1.9002,1.9049,1.9087,1.9101,1.9138,1.9164,1.9159,1.9174,1.9172,1.9175,1.909,1.9076,1.9177,1.9177,1.9177,1.9177,1.9177,1.9177,1.8807,1.8864,1.8867,1.8933,1.8947,1.8992,1.9009,1.9032,1.905,1.9104,1.9136,1.9145,1.9164,1.9203,1.9236,1.924,1.9254,1.9271,1.9271,1.9192,1.9181,1.9171,1.9158,1.9274,1.9274,1.9353,1.9354,1.9354]}]]